Kezdőlap
METAR-TAF:

METAR-TAF

Repülőterek :

Albert Lea, Minnesota, Amerikai Egyesült Államok

földrajzi szélesség: 43-41N, földrajzi hosszúság: 093-22W, magasság: 383 m

Jelenlegi meteorológiai megfigyelések

A jelentés 10 perccel ezelõtt készült, 11:55 UTC
Szélcsend
Hőmérséklet 12°C
Páratartalom 82%
Légköri nyomás 1016 hPa
Látótávolság: 16.1 km
Szakadozott felhőzet 9000 lábon
Borult 11000 lábon

METAR: KAEL 171155Z AUTO 00000KT 10SM BKN090 OVC110 12/09 A3000 RMK AO2 P0001

Idő: 07:05 (12:05 UTC)


TAF: hiányzik

Meteorológiai megfigyelések és előrejelzések több, mint 4000 repülőtéren (METAR és TAF jelentéseket).

A térképen piros és sárga pontok jelzik az elérhető meteorológiai állomásokat.

Mozgassa az egeret a pont fölött, hogy megjelenjen az állomás neve.

Azután kattintson az időjárási megfigyelések és előrejelzések megtekintéséhez.

A térkép megváltoztatása: kattintson a fekete keresztel jelölt zöld gombra ráközelítéshez, a vonallal jelölt zöld gombra távolításhoz, vagy a zöld nyilakra a szomszédos térképek eléréséhez.


METAR-TAF: